Location: NJAA Observatory
(40.6819°N, 74.8979°W)
Time: 18:12:50
(UTC-04:00)

Landsat 5 - Visible Passes

Search period start: 28 March 2015 00:00
Search period end: 07 April 2015 00:00
Orbit: 533 x 662 km, 98.0° (Epoch: 28 March)

Date Brightness Start Highest point End Pass type
(mag) Time Alt. Az. Time Alt. Az. Time Alt. Az.
04 Apr 6.6 23:13:57 10° N 23:13:57 10° N 23:14:01 10° N visible
05 Apr 6.6 23:24:22 11° N 23:24:22 11° N 23:24:36 10° N visible
06 Apr 6.6 23:34:46 12° N 23:34:46 12° N 23:35:06 10° N visible
